Regional Weather Roundup
Issued by NWS

Home | Current Version | Previous Version | Graphics & Text | Print | Product List | Glossary On
Versions: 1 2 3 4 5 6 7 8 9 10 11 12 13 14 15 16 17 18 19 20 21 22 23 24 25 26 27 28 29 30 31 32 33 34 35 36 37 38 39 40 41 42 43 44 45 46 47 48 49 50
080
ASUS43 KBIS 011702
RWRND

NORTH DAKOTA REGIONAL WEATHER ROUNDUP
NATIONAL WEATHER SERVICE BISMARCK ND
1200 PM CDT SUN MAY 01 2016

NOTE: "FAIR" INDICATES FEW OR NO CLOUDS BELOW 12,000 FEET WITH NO
SIGNIFICANT WEATHER AND/OR OBSTRUCTIONS TO VISIBILITY.


NDZ001>003-009>011-017-011800-
NORTHWEST NORTH DAKOTA

CITY           SKY/WX    TMP DP  RH WIND       PRES   REMARKS
WILLISTON      SUNNY     60  29  30 VRB3      30.31F
MINOT          SUNNY     62  25  24 SW3       30.30F
MINOT AFB      SUNNY     57  27  32 VRB3      30.29F
$$

NDZ018>021-031>035-040>046-011800-
SOUTHWEST NORTH DAKOTA

CITY           SKY/WX    TMP DP  RH WIND       PRES   REMARKS
BISMARCK       SUNNY     57  28  33 NW7       30.31F
DICKINSON      SUNNY     56  27  32 N10G17    30.29F
GARRISON         N/A     58  29  33 SW6       30.30F
HETTINGER ARPT SUNNY     56  29  35 VRB5G17   30.32F
$$

NDZ004>008-012>016-024-026-027-054-011800-
NORTHEAST NORTH DAKOTA

CITY           SKY/WX    TMP DP  RH WIND       PRES   REMARKS
GRAND FORKS    SUNNY     60  29  30 NE10      30.27F
GRND FRKS AFB  SUNNY     59  27  28 E7        30.27F
DEVILS LAKE    SUNNY     56  26  31 E3        30.30F
$$

NDZ022-023-025-028>030-036>039-047>053-011800-
SOUTHEAST NORTH DAKOTA

CITY           SKY/WX    TMP DP  RH WIND       PRES   REMARKS
FARGO          SUNNY     58  30  34 NW6       30.26F
JAMESTOWN      SUNNY     57  28  33 VRB3      30.27F
$$





USA.gov is the U.S. government's official web portal to all federal, state and local government web resources and services.